{"data":{"norad_id":66819,"intl_designator":"2025-278AE","name":"STARLINK-35989","alt_names":[],"object_type":"PAYLOAD","status":"ACTIVE","operator":null,"country":"US","launch_date":"2025-12-01","launch_site_code":"AFETR","launch_vehicle":null,"mission":null,"orbit_class":"UNKNOWN","rcs_meters":null,"size_class":null,"mass_kg":null,"dimensions":null,"purposes":["comms"],"wikipedia_slug":null,"has_3d_model":false,"image_url":null,"decayed_at":null,"tle_current":{"epoch":"2026-05-25T02:18:31.825152Z","epoch_age_seconds":66488,"freshness":"FRESH","line1":"1 66819U 25278AE  26145.09620168  .00016185  00000+0  59604-3 0  9991","line2":"2 66819  43.0039  42.9269 0001356 248.7541 111.3166 15.27599185 26895","mean_motion":15.27599185,"eccentricity":0.0001356,"inclination_deg":43.0039,"raan_deg":42.9269,"arg_perigee_deg":248.7541,"mean_anomaly_deg":111.3166,"bstar":0.00059604,"rev_number":2689,"period_min":94.265564824846,"perigee_km":482.06128080419,"apogee_km":483.92201889403,"semimajor_km":6861.1286498491,"source":"CELESTRAK","updated_at":"2026-05-25T13:38:21.333053Z"}}}